{"data":{"norad_id":66518,"intl_designator":"2025-265C","name":"STARLINK-35962","alt_names":[],"object_type":"PAYLOAD","status":"ACTIVE","operator":null,"country":"US","launch_date":"2025-11-19","launch_site_code":"AFETR","launch_vehicle":null,"mission":null,"orbit_class":"UNKNOWN","rcs_meters":null,"size_class":null,"mass_kg":null,"dimensions":null,"purposes":["comms"],"wikipedia_slug":null,"has_3d_model":false,"image_url":null,"decayed_at":null,"tle_current":{"epoch":"2026-09-20T16:41:58.497216Z","epoch_age_seconds":72309,"freshness":"FRESH","line1":"1 66518U 25265C   26263.69581594  .00013245  00000+0  48979-3 0  9996","line2":"2 66518  43.0041 256.9489 0001716 277.8155  82.2501 15.27591743 46937","mean_motion":15.27591743,"eccentricity":0.0001716,"inclination_deg":43.0041,"raan_deg":256.9489,"arg_perigee_deg":277.8155,"mean_anomaly_deg":82.2501,"bstar":0.00048979,"rev_number":4693,"period_min":94.26602406033,"perigee_km":481.8365599982,"apogee_km":484.19130699857,"semimajor_km":6861.1509334984,"source":"CELESTRAK","updated_at":"2026-09-21T09:00:35.925611Z"}}}